Location: Beuerbach
(48.1459°N, 10.9174°E)
Time: 09:33:42
(UTC+00:00)

Lacrosse 5 rocket - Pass Details

Date: 23 May 2024
Orbit: 445 x 572 km, 57.0° (Epoch: 15 June)

Event Time Altitude Azimuth Distance (km) Brightness Sun altitude
Rises 01:19:54 0° 304° (NW) 2,731 4.9 -15.6°
Reaches altitude 10° 01:22:11 10° 301° (WNW) 1,815 4.0 -15.4°
Maximum altitude 01:26:13 57° 223° (SW) 626 1.2 -15.0°
Drops below altitude 10° 01:30:03 10° 144° (SE) 1,729 3.6 -14.7°
Sets 01:32:12 0° 140° (SE) 2,587 4.6 -14.5°
